ONEWEB-0188, 48231

Orbit data source: Space-Track

ONEWEB-0188, 48231 is a payload satellite owned by One Web (NAA) (UK) in LEO that was launched on Sun, 25 Apr 2021 UTC via a SOYUZ-2-1B launch vehicle from the Vostochny Cosmodrome (VOSTO). Payload-class satellites include a variety of spacecraft equipped with specific instruments for various scientific and technological missions. These include communications satellites like Starlink; space stations such as the ISS; scientific satellites like the Hubble; Earth observation satellites from companies like Planet Labs, Umbra, and HawkEye 360; GPS; miniature CubeSats for education and research; and military/defense satellites.

Loading next visibility...
Identifier
48231, 2021-031X
Orbit
LEO
Country
Flag of UKUK
Related business
Manufacturer
One Web
Mission
Operational Commercial Communications
Bus & Motor
ARROW, Unknown motor
Mass
148 kg wet, ~140 kg dry
Launch date (UTC)
2021-04-25 (5 years ago)
Launch vehicle
SOYUZ-2-1B
Launch site
Vostochny Cosmodrome (VOSTO)
Object type
Payload
Rocket body
Debris
Shape & HBR
Trap Box + 2 Pan, 6.7 m
Radar Cross Section
3.464 m², Large (>1 m²)

Expand to show TLE details & history
Last TLE update: 11 hours ago

TLE from 11 hours ago
0 ONEWEB-0188
1 48231U 21031X   25305.46470441  .00000238  00000-0  60795-3 0  9993
2 48231  87.9003 335.1113 0001850  93.7847 266.3495 13.14501265218224
Epoch: 2025-11-01T11:09Z
TLE epoch observation values (Epoch: 2025-11-01T11:09:10.461Z)
Latitude
0.00008°
Longitude
126.82331°
Altitude
1,208.78 km
Speed
7.25 km/s
True Right ascension
22h 20m 26s
True Declination
0° 00' 00"
Sunlit
Object was in daylight at epoch
Visualization orbit readout
Latitude
Unknown
Longitude
Unknown
Altitude
Unknown
Speed
Unknown
Apparent Right ascension
Unknown
Apparent Declination
Unknown
Sunlit
N/A
Visualization observer readout
Local Sidereal Time
17:52:50
Azimuth
Unknown
Elevation
Unknown
Doppler factor
Unknown
Orbital elements
Apogee altitude
1,204.312 km
Perigee altitude
1,201.507 km
Semi-major axis
7,581.047 km
Eccentricity
0.00019
Inclination
87.9003°
RAAN
335.1113°
Arg. of periapsis
93.7847°
True anomaly
266.32834°
Mean anomaly
266.3495°
Eccentric anomaly
266.33892°
Mean motion
3.28813 °/min
Orbital period
109.48 mins
BSTAR
0.00060795
Loading maneuver chart data...
Computing Atmospheric mass density...
Loading historical data...
Loading historical data...
Loading historical data...
Loading historical data...
Loading historical data...
Loading historical data...
Loading historical data...

Documentation

Showing up to 5 results
|